GFSFLT2_925_temp_120.txt.gz
Temp
1 1 1 1 1 2 2 2 2 4 4 6 7 6 9 11 12 12 13 14 14 15 15 15 15 14 14
0 -0 0 0 0 1 1 1 1 2 4 4 7 6 6 7 9 12 13 13 13 14 14 14 14 15 15
-1 -0 -0 -0 -0 -0 -0 0 0 2 2 2 4 6 5 5 6 8 10 13 13 13 13 14 14 14 14
-1 -1 -1 -1 -1 -1 -1 -1 -1 1 1 2 3 3 4 4 5 5 7 8 10 12 13 13 13 13 13
-1 -1 -1 -2 -2 -2 -2 -1 -1 0 -1 -1 -1 1 2 2 3 4 5 6 7 8 10 11 12 12 12
-2 -2 -2 -2 -2 -2 -2 -2 -1 -1 -2 -1 -1 -1 -1 0 2 3 4 4 6 6 7 8 9 11 11
-3 -3 -3 -2 -2 -2 -2 -2 -2 -2 -2 -2 -1 -1 -0 0 1 2 3 4 4 5 6 7 8 9 10
-2 -2 -2 -2 -2 -2 -2 -2 -2 -2 -2 -2 -1 -1 -1 1 2 2 2 2 3 4 5 7 7 8 9
-2 -2 -2 -2 -2 -3 -3 -3 -3 -3 -2 -2 -1 -2 -2 -0 1 0 -0 0 2 3 5 6 7 8 9
-3 -3 -3 -3 -3 -3 -4 -4 -4 -4 -2 -2 -3 -2 -3 -1 -1 -1 -1 0 1 3 4 5 7 8 9
-3 -4 -3 -3 -3 -3 -4 -4 -5 -5 -3 -3 -4 -3 -3 -3 -3 -3 -2 -2 -0 1 3 5 6 7 8
-5 -5 -5 -5 -4 -4 -4 -4 -4 -4 -4 -4 -5 -4 -5 -5 -4 -3 -3 -2 -1 -1 1 3 5 6 7
-6 -5 -6 -5 -5 -5 -4 -4 -4 -4 -4 -3 -4 -4 -5 -5 -5 -5 -3 -2 -1 -1 -0 1 2 4 6
-6 -6 -6 -6 -6 -6 -6 -6 -6 -4 -4 -4 -4 -4 -5 -6 -5 -4 -3 -3 -2 -1 -1 -0 1 2 5
-7 -7 -6 -6 -6 -6 -6 -6 -6 -6 -6 -4 -4 -4 -5 -6 -6 -5 -3 -3 -2 -2 -1 -1 -0 1 2
-7 -7 -7 -8 -8 -7 -6 -6 -7 -7 -7 -6 -5 -6 -5 -4 -4 -4 -3 -3 -3 -2 -2 -1 -1 -0 1
-8 -8 -8 -8 -7 -7 -7 -7 -7 -7 -6 -5 -6 -7 -6 -6 -4 -3 -3 -3 -2 -2 -2 -2 -1 0 1

GFSFLT2_925_temp_126.txt.gz
Temp
3 3 3 2 2 2 1 2 2 2 1 1 2 1 2 2 2 2 3 4 4 6 6 6 11 13 14
2 2 2 2 1 1 1 1 1 1 1 1 1 1 1 1 1 1 2 2 2 4 5 6 6 9 12
2 2 1 1 1 1 1 1 1 1 1 1 1 1 1 1 1 1 1 1 2 2 4 5 5 6 9
1 1 1 1 1 1 1 1 0 0 1 1 1 1 1 1 1 1 1 2 2 3 3 4 5 5 6
1 1 1 1 1 0 0 -0 -1 0 0 1 1 1 1 1 1 0 0 1 1 1 2 2 3 4 5
1 1 1 1 0 0 -1 -1 -0 1 0 -0 0 0 1 1 0 -0 -0 1 0 -0 0 1 1 2 4
-1 -0 -0 -0 -1 -1 -1 -1 -0 -0 -1 -1 -0 0 0 1 -0 -0 -0 -1 -0 -0 -0 -0 0 1 3
-1 -1 -1 -2 -2 -2 -2 -2 -1 -1 -1 -1 -1 -1 0 -0 -0 -1 -1 -1 -1 -1 -1 -1 -0 0 1
-2 -2 -2 -2 -2 -2 -2 -2 -1 -1 -1 -2 -1 -1 -2 -1 -0 -1 -1 -1 -1 -1 -1 -1 -1 -1 2
-1 -1 -2 -2 -3 -3 -3 -3 -2 -2 -2 -2 -3 -3 -2 -1 -1 -1 -1 -2 -2 -2 -2 -2 -1 -1 -0
-2 -2 -2 -2 -3 -3 -3 -4 -4 -3 -4 -4 -4 -4 -3 -3 -2 -2 -2 -2 -2 -2 -2 -2 -2 -1 -1
-3 -3 -3 -3 -4 -4 -4 -5 -5 -5 -6 -6 -5 -5 -4 -4 -2 -2 -2 -3 -3 -3 -3 -2 -2 -2 -1
-3 -3 -3 -4 -5 -5 -6 -5 -6 -6 -6 -5 -5 -5 -5 -4 -3 -3 -3 -3 -3 -2 -3 -3 -2 -2 -2
-4 -4 -4 -5 -5 -5 -5 -5 -6 -5 -6 -5 -5 -5 -5 -5 -4 -4 -3 -3 -3 -3 -3 -3 -2 -2 -1
-4 -5 -5 -5 -5 -6 -6 -6 -6 -6 -5 -5 -5 -5 -5 -6 -5 -5 -4 -3 -4 -3 -3 -3 -2 -2 -1
-5 -6 -6 -6 -6 -6 -6 -6 -6 -6 -5 -5 -6 -6 -5 -4 -4 -5 -4 -4 -3 -3 -4 -3 -2 -1 -1
-6 -6 -6 -6 -6 -6 -6 -7 -6 -6 -6 -6 -6 -6 -5 -4 -3 -3 -4 -4 -4 -4 -4 -3 -2 -2 -2

GFSFLT2_925_temp_129.txt.gz
Temp
3 3 3 3 2 2 2 2 2 2 2 2 2 2 2 2 2 2 2 2 2 3 4 4 6 6 7
2 2 2 2 2 2 1 2 2 2 2 2 2 2 1 1 2 2 2 1 2 3 3 4 4 5 6
2 2 2 2 2 1 1 1 1 1 0 1 2 1 1 1 2 1 1 1 1 2 2 2 3 3 4
1 1 1 2 2 2 1 1 1 -0 -0 1 1 1 1 1 1 1 1 0 1 2 1 1 1 2 2
1 1 1 2 2 1 1 0 -1 -0 0 1 0 0 0 1 1 1 1 0 0 1 1 1 1 1 1
-0 0 1 1 1 0 -1 -1 -1 -0 0 -0 -0 -0 -0 0 1 1 0 0 0 -0 -0 0 0 0 1
-1 -1 -1 -1 -1 -1 -1 -1 -1 -1 -1 -1 -1 -1 -1 -1 0 0 -0 0 -0 -0 -0 -0 -0 -0 0
-1 -1 -1 -2 -2 -2 -2 -2 -2 -2 -1 -1 -1 -1 -1 -1 -1 -1 -0 -0 -1 -1 -1 -1 -1 -1 -0
-1 -1 -1 -1 -1 -1 -2 -2 -2 -2 -2 -2 -2 -2 -2 -3 -2 -1 -1 -1 -1 -1 -1 -1 -1 -1 -1
-2 -1 -1 -1 -1 -2 -2 -3 -3 -3 -2 -2 -3 -3 -3 -3 -2 -2 -2 -2 -1 -1 -2 -1 -1 -2 -2
-2 -2 -1 -2 -2 -2 -3 -3 -4 -4 -4 -4 -5 -5 -5 -4 -4 -4 -3 -2 -2 -2 -3 -3 -2 -1 -2
-2 -2 -2 -2 -3 -3 -4 -4 -5 -5 -5 -6 -6 -6 -6 -5 -4 -4 -4 -3 -3 -3 -3 -3 -3 -2 -2
-2 -3 -3 -3 -4 -4 -5 -5 -5 -5 -5 -5 -6 -6 -6 -5 -5 -5 -4 -4 -4 -3 -3 -3 -3 -3 -2
-3 -4 -4 -4 -5 -5 -5 -5 -5 -5 -5 -5 -5 -5 -6 -5 -5 -5 -5 -5 -4 -4 -3 -4 -3 -3 -2
-4 -4 -4 -5 -5 -5 -6 -6 -6 -6 -6 -5 -5 -5 -5 -6 -5 -5 -5 -5 -4 -4 -4 -4 -4 -4 -3
-5 -5 -5 -6 -6 -6 -6 -6 -6 -6 -6 -6 -6 -6 -6 -6 -5 -5 -5 -4 -4 -4 -4 -4 -4 -4 -3
-6 -6 -6 -6 -5 -6 -6 -6 -6 -6 -6 -6 -6 -6 -6 -6 -5 -4 -4 -4 -4 -4 -4 -4 -4 -4 -4

GFSFLT2_925_temp_135.txt.gz
Temp
1 1 1 1 1 1 1 1 1 1 1 1 1 1 1 2 2 2 2 2 2 2 2 2 3 4 3
1 1 1 1 1 1 1 1 1 1 1 0 1 1 1 1 1 1 1 1 1 2 1 2 2 3 2
-0 -0 -0 -0 0 0 1 0 0 0 -0 -0 -0 0 1 0 0 0 0 0 1 1 1 1 1 1 1
-1 -1 -1 -1 -1 -0 -1 -1 -1 -1 -0 -1 -1 -1 -1 -1 -1 -1 -1 -0 1 1 1 1 1 1 1
-2 -2 -2 -2 -1 -1 -1 -1 -2 -2 -1 -1 -1 -2 -2 -1 -1 -1 -1 -1 0 0 -0 0 1 1 1
-2 -2 -2 -2 -2 -1 -2 -2 -2 -2 -2 -3 -3 -3 -2 -2 -2 -1 -1 -1 -1 -1 -1 0 0 0 0
-1 -1 -2 -1 -1 -2 -2 -2 -3 -3 -3 -3 -3 -3 -3 -3 -3 -2 -2 -2 -2 -1 -0 -0 -1 -0 -0
-1 -1 -1 -1 -1 -2 -2 -2 -3 -3 -3 -4 -3 -4 -3 -3 -3 -3 -3 -2 -2 -2 -2 -2 -2 -1 -1
-1 -1 -1 -1 -1 -1 -2 -2 -3 -3 -3 -3 -4 -4 -4 -4 -3 -3 -3 -3 -3 -3 -3 -3 -2 -2 -2
-1 -1 -2 -2 -2 -2 -2 -3 -4 -4 -3 -4 -4 -5 -5 -4 -4 -4 -5 -5 -5 -4 -4 -3 -3 -3 -3
-2 -2 -2 -2 -2 -2 -2 -3 -3 -4 -4 -4 -5 -5 -6 -6 -6 -5 -5 -5 -5 -5 -5 -4 -4 -4 -4
-3 -3 -3 -3 -3 -3 -3 -3 -4 -4 -4 -4 -5 -6 -6 -6 -6 -5 -5 -6 -6 -6 -5 -5 -5 -4 -4
-3 -3 -3 -3 -3 -4 -4 -4 -4 -4 -5 -5 -5 -6 -6 -6 -6 -6 -6 -6 -6 -6 -6 -5 -6 -6 -6
-3 -3 -3 -3 -4 -4 -5 -5 -6 -6 -6 -5 -6 -6 -7 -7 -7 -7 -6 -6 -6 -6 -6 -6 -6 -6 -6
-3 -3 -4 -4 -5 -5 -5 -6 -6 -6 -6 -6 -6 -6 -6 -6 -7 -7 -7 -7 -6 -7 -7 -7 -6 -6 -5
-4 -4 -5 -5 -6 -6 -6 -6 -6 -6 -6 -7 -7 -7 -7 -7 -7 -7 -7 -7 -7 -7 -7 -7 -6 -6 -6
-5 -5 -6 -6 -6 -6 -6 -7 -7 -7 -7 -7 -7 -8 -7 -7 -5 -5 -6 -6 -7 -7 -7 -7 -7 -6 -7

GFSFLT2_925_temp_141.txt.gz
Temp
1 1 1 1 1 1 1 1 1 1 1 1 1 1 1 1 2 2 1 1 2 2 2 3 3 3 3
0 0 1 0 0 0 0 0 -0 0 -0 -0 0 0 0 1 1 0 0 1 0 1 1 2 2 2 2
-1 -1 -1 -1 -1 -0 -0 -0 -1 -1 -1 -1 -1 -1 -0 -0 -1 -1 -0 -0 -0 0 0 1 1 1 1
-1 -1 -1 -1 -2 -2 -1 -1 -1 -1 -1 -1 -2 -1 -1 -2 -2 -2 -2 -1 -1 -0 -0 1 1 0 1
-2 -2 -2 -2 -2 -2 -2 -2 -2 -1 -1 -1 -1 -2 -1 -2 -2 -1 -2 -1 -1 -1 -0 0 0 -0 1
-2 -2 -2 -2 -2 -2 -2 -3 -4 -1 -2 -2 -2 -2 -2 -2 -2 -3 -2 -2 -2 -1 -1 -1 -1 0 0
-1 -1 -1 -1 -1 -2 -2 -3 -3 -2 -3 -3 -2 -3 -2 -2 -2 -3 -3 -2 -2 -2 -2 -1 -1 -1 -1
0 -0 -0 -0 -1 -1 -1 -3 -3 -2 -3 -3 -3 -3 -2 -2 -2 -3 -3 -3 -2 -2 -2 -2 -2 -2 -2
-1 -1 -1 -1 -1 -1 -2 -2 -2 -2 -3 -3 -3 -3 -3 -3 -2 -3 -3 -3 -3 -3 -3 -3 -3 -3 -3
-0 -1 -1 -1 -1 -1 -2 -2 -3 -3 -2 -4 -4 -4 -5 -4 -4 -3 -3 -4 -4 -4 -4 -4 -3 -4 -4
-1 -1 -1 -1 -2 -2 -2 -2 -4 -4 -4 -4 -4 -4 -5 -5 -5 -5 -5 -5 -5 -5 -5 -5 -5 -5 -5
-1 -2 -2 -2 -2 -2 -2 -3 -3 -3 -3 -4 -5 -5 -5 -6 -6 -5 -6 -6 -6 -6 -5 -5 -5 -5 -5
-2 -2 -2 -2 -2 -3 -3 -3 -3 -4 -4 -4 -5 -5 -6 -7 -6 -6 -6 -6 -6 -6 -6 -5 -5 -5 -6
-2 -2 -2 -3 -3 -3 -4 -3 -4 -4 -4 -5 -5 -6 -7 -7 -7 -7 -6 -6 -6 -6 -7 -7 -7 -7 -7
-3 -3 -4 -4 -4 -3 -4 -4 -5 -6 -6 -6 -6 -6 -6 -7 -7 -7 -7 -7 -6 -7 -7 -7 -7 -7 -7
-3 -4 -4 -4 -4 -4 -5 -5 -6 -6 -7 -6 -7 -7 -8 -7 -7 -7 -7 -7 -7 -7 -7 -7 -7 -6 -7
-3 -4 -4 -4 -5 -5 -6 -6 -7 -7 -7 -7 -7 -8 -8 -7 -6 -5 -6 -6 -6 -6 -6 -7 -7 -6 -6

GFSFLT2_925_temp_144.txt.gz
Temp
1 2 2 2 2 1 1 1 1 1 0 1 1 1 1 1 1 2 2 1 1 2 2 2 3 3 3
1 1 0 1 1 1 1 1 0 -0 -0 -0 0 0 0 0 1 1 0 0 1 1 1 1 2 2 3
-1 -0 -0 -0 -0 -0 0 -0 -0 -0 -1 -1 -1 -1 -0 -0 0 -0 -0 -1 -1 -0 0 0 1 2 2
-2 -1 -1 -0 -1 -1 -1 -1 -1 -1 -1 -1 -1 -1 -1 -1 -1 -1 -2 -2 -1 -1 -0 0 0 1 1
-2 -2 -2 -2 -2 -1 -2 -1 -1 -1 -1 -1 -1 -1 -1 -1 -1 -1 -1 -2 -1 -1 -1 -0 0 0 0
-2 -2 -2 -1 -1 -1 -2 -3 -4 -1 -2 -1 -1 -2 -1 -1 -1 -2 -2 -2 -1 -1 -1 -1 -1 -0 0
-1 -1 -1 -0 0 -1 -2 -2 -3 -2 -2 -3 -2 -2 -1 -1 -2 -2 -2 -2 -2 -2 -2 -1 -1 -1 -1
-0 0 0 0 -0 -1 -1 -2 -2 -3 -3 -3 -2 -2 -2 -2 -2 -2 -3 -3 -3 -2 -2 -2 -2 -2 -2
-1 -0 -0 -0 -1 -1 -2 -3 -2 -2 -3 -3 -3 -3 -3 -2 -2 -3 -4 -3 -3 -2 -2 -2 -3 -3 -2
-1 -1 -1 -1 -1 -1 -1 -2 -2 -2 -2 -3 -4 -3 -4 -4 -3 -3 -3 -3 -3 -4 -4 -4 -3 -3 -3
-1 -1 -1 -1 -1 -1 -1 -2 -3 -3 -3 -3 -4 -4 -4 -4 -4 -4 -4 -4 -4 -4 -4 -4 -4 -4 -4
-2 -2 -2 -1 -1 -1 -2 -2 -2 -3 -3 -4 -4 -5 -5 -5 -5 -5 -5 -5 -5 -5 -5 -5 -5 -5 -4
-2 -2 -1 -1 -1 -2 -2 -3 -3 -3 -3 -3 -4 -4 -5 -6 -6 -6 -6 -6 -6 -6 -6 -6 -5 -5 -5
-2 -1 -1 -2 -2 -3 -3 -3 -4 -4 -3 -4 -4 -5 -6 -7 -7 -7 -7 -7 -6 -6 -6 -6 -6 -6 -6
-2 -3 -3 -3 -3 -3 -4 -4 -5 -5 -5 -4 -5 -6 -6 -6 -7 -7 -7 -7 -7 -7 -7 -7 -7 -7 -7
-3 -3 -3 -4 -4 -4 -4 -5 -6 -6 -6 -5 -6 -7 -8 -7 -8 -7 -7 -7 -7 -7 -7 -7 -7 -6 -6
-3 -4 -4 -4 -4 -5 -5 -6 -6 -6 -6 -6 -7 -8 -8 -8 -6 -6 -7 -7 -7 -7 -7 -7 -7 -6 -6

GFSFLT2_925_temp_147.txt.gz
Temp
2 3 2 3 2 2 2 2 2 2 1 0 1 1 1 1 1 1 2 2 2 2 2 2 3 4 4
2 1 2 1 2 1 2 1 1 1 1 -0 0 1 1 0 1 1 1 1 1 1 1 1 2 3 3
2 1 0 1 0 0 1 1 1 1 0 -0 -0 -0 -0 -0 0 1 1 0 -0 -0 0 0 1 1 2
0 0 -0 -0 -1 -1 -0 -1 -0 0 0 -0 -1 -1 -1 -0 -1 -1 -1 -1 -1 -1 -0 0 0 1 2
-0 0 0 -1 -1 0 -1 -0 -1 -1 -1 -0 -0 -0 -1 -1 -1 -0 -1 -2 -2 -1 -0 0 0 0 1
1 1 1 0 -0 -1 -1 -1 0 -1 -2 -1 -1 -1 -1 -1 -0 -1 -2 -2 -2 -1 -1 -0 -0 -0 -0
1 1 1 0 -1 -1 -1 -1 -1 -1 -2 -1 -1 -2 -2 -2 -1 -2 -2 -2 -2 -1 -1 -1 -1 -1 -0
0 1 0 0 -0 -1 -0 -1 -2 -2 -3 -2 -1 -1 -1 -2 -2 -2 -2 -2 -2 -2 -2 -1 -1 -1 -2
1 1 1 -1 -1 -2 -2 -2 -1 -1 -2 -2 -1 -2 -2 -2 -2 -2 -3 -3 -3 -2 -2 -2 -2 -2 -2
1 0 -1 -1 -1 -1 -2 -2 -2 -1 -1 -2 -2 -3 -2 -3 -4 -4 -3 -3 -3 -3 -3 -3 -3 -3 -3
-0 -1 -1 -1 -2 -1 -1 -2 -1 -1 -1 -2 -4 -4 -3 -2 -3 -3 -4 -4 -4 -4 -4 -4 -4 -4 -4
-1 -2 -2 -2 -1 -1 -1 -1 -1 -2 -2 -3 -3 -4 -4 -3 -3 -4 -4 -4 -5 -5 -5 -5 -5 -5 -4
-2 -2 -2 -1 -1 -1 -1 -1 -2 -2 -3 -3 -3 -4 -5 -4 -4 -4 -4 -4 -5 -5 -6 -6 -5 -5 -5
-1 -1 -2 -2 -2 -2 -3 -3 -3 -3 -3 -3 -4 -4 -5 -5 -5 -5 -5 -6 -5 -5 -6 -6 -6 -6 -6
-2 -2 -3 -3 -3 -3 -3 -3 -4 -3 -4 -4 -4 -5 -5 -6 -6 -6 -6 -6 -6 -6 -6 -6 -6 -6 -6
-2 -2 -2 -3 -3 -3 -3 -4 -4 -4 -5 -5 -5 -7 -7 -7 -7 -7 -6 -6 -6 -6 -6 -6 -6 -6 -5
-2 -2 -2 -3 -3 -3 -4 -4 -5 -5 -5 -6 -6 -7 -6 -6 -6 -6 -7 -6 -6 -6 -6 -6 -6 -6 -5

GFSFLT2_925_temp_150.txt.gz
Temp
7 5 4 4 4 3 2 2 2 2 2 2 1 1 2 2 2 2 2 2 3 2 3 3 3 3 4
6 6 3 3 3 3 3 3 2 2 1 2 1 1 1 1 1 1 1 2 2 1 1 2 2 3 3
4 5 4 3 2 2 2 2 2 1 1 2 1 1 1 1 1 1 1 1 1 1 1 1 1 2 2
3 3 4 4 2 2 3 2 2 2 1 1 1 1 0 0 0 1 -0 -0 -0 -0 -0 0 0 1 1
3 3 3 3 3 2 2 2 3 2 2 2 2 1 1 0 0 0 -0 -1 -1 -1 -1 -0 0 1 1
3 4 4 3 3 3 2 2 3 3 1 2 1 1 1 1 1 0 -1 -1 -1 -1 -1 -0 0 0 0
3 4 4 4 3 3 1 1 2 3 0 1 2 1 1 1 -0 -1 -1 -1 -1 -1 -1 -0 -0 -0 -0
2 3 3 3 3 2 1 1 1 1 1 0 1 1 1 1 0 -1 -1 -2 -1 -1 -1 -1 -1 -1 -0
3 2 2 2 2 1 -1 -0 0 1 1 -0 0 0 0 0 0 -1 -1 -2 -2 -2 -2 -1 -1 -1 -1
2 2 1 1 0 -0 -0 -1 -0 1 1 1 -1 -1 -0 0 -1 -1 -2 -3 -3 -2 -2 -2 -2 -2 -1
1 1 1 1 0 -0 -1 -1 -1 -1 1 -1 -1 -1 -2 -1 -1 -2 -1 -1 -2 -2 -3 -3 -3 -3 -2
-0 -0 0 -1 -1 -1 -1 -1 -1 -1 -0 -1 -2 -2 -2 -2 -2 -1 -2 -2 -2 -3 -3 -3 -3 -3 -3
-0 -0 -1 -1 -1 -1 -2 -2 -1 -1 -1 -1 -2 -3 -2 -2 -2 -2 -2 -3 -3 -3 -3 -4 -4 -4 -4
-0 -0 -1 -1 -2 -2 -2 -2 -3 -3 -2 -3 -3 -3 -3 -3 -3 -3 -3 -4 -3 -4 -4 -4 -4 -4 -4
-1 -1 -1 -1 -2 -2 -2 -2 -2 -2 -2 -3 -3 -3 -4 -4 -4 -4 -4 -4 -4 -4 -4 -5 -5 -5 -4
-1 -1 -1 -2 -2 -2 -2 -2 -2 -2 -2 -3 -4 -4 -5 -5 -5 -5 -5 -5 -5 -5 -5 -5 -5 -5 -5
-1 -1 -2 -2 -2 -2 -2 -2 -2 -2 -3 -3 -4 -4 -3 -4 -3 -5 -6 -5 -5 -5 -5 -5 -5 -5 -4

GFSFLT2_925_temp_153.txt.gz
Temp
7 8 7 6 5 5 4 4 4 3 3 2 2 2 2 2 2 2 3 3 3 3 4 3 4 4 4
6 6 7 6 5 5 4 4 4 4 3 3 2 2 2 2 2 2 2 2 2 3 3 2 2 3 3
5 5 6 6 5 4 4 3 3 3 3 3 2 2 2 2 2 2 2 1 2 2 2 1 2 2 3
5 5 5 5 5 4 3 2 2 2 3 2 2 2 2 2 2 1 1 1 1 1 1 1 1 1 1
5 5 4 4 4 4 3 3 3 3 3 2 2 2 2 1 1 1 1 1 0 -0 0 0 0 0 1
5 5 5 4 4 4 3 3 2 3 3 3 2 2 2 2 1 1 1 1 0 -0 -0 -0 0 0 1
4 5 5 5 5 4 4 3 3 3 3 2 2 2 2 2 2 1 1 0 0 -0 -0 -0 -0 0 1
2 3 3 4 4 4 4 3 3 2 2 1 1 1 2 2 1 1 0 -0 -0 -0 -0 -0 -0 -0 -0
3 3 3 3 3 3 2 1 2 1 1 1 0 1 1 2 1 1 1 0 -0 -1 -1 -1 -0 -0 -1
2 3 2 2 2 1 0 0 0 0 0 0 -1 0 -1 0 0 0 -0 -1 -2 -2 -2 -1 -1 -1 -1
1 2 2 2 2 1 -0 -0 -0 -0 1 0 -1 -1 -1 -0 -1 -1 -1 -1 -1 -2 -2 -2 -1 -1 -2
1 1 1 1 1 0 0 -0 -0 -0 -0 -1 -1 -1 -1 -2 -2 -1 -1 -1 -2 -2 -2 -2 -2 -2 -2
0 0 0 0 -0 -1 -0 -1 -1 -1 -1 -1 -2 -1 -1 -2 -1 -1 -1 -2 -2 -2 -3 -3 -3 -3 -3
-0 0 -0 -0 -1 -1 -1 -2 -1 -1 -1 -1 -1 -2 -2 -2 -2 -2 -2 -3 -3 -3 -3 -4 -4 -4 -4
-1 -1 -1 -1 -1 -2 -2 -2 -2 -2 -2 -2 -2 -2 -2 -2 -3 -3 -3 -3 -3 -3 -4 -4 -4 -4 -4
-1 -1 -1 -1 -1 -2 -2 -2 -2 -2 -2 -3 -3 -3 -3 -3 -3 -3 -4 -4 -4 -4 -4 -4 -4 -4 -5
-2 -2 -2 -1 -1 -1 -2 -2 -2 -2 -2 -2 -3 -3 -3 -4 -3 -4 -5 -4 -5 -5 -5 -5 -5 -5 -5

GFSFLT2_925_temp_156.txt.gz
Temp
6 6 7 8 7 7 7 7 7 6 5 4 4 3 3 3 3 3 3 3 4 3 4 4 5 4 5
5 5 5 6 7 7 7 6 6 6 6 5 4 3 3 3 3 3 3 3 3 3 3 4 4 3 4
4 4 4 4 5 6 6 6 5 5 5 4 4 4 3 3 2 2 2 2 2 2 2 3 3 2 3
4 4 4 4 4 4 4 4 4 4 4 4 4 4 4 3 3 2 2 2 2 2 2 2 2 2 2
3 4 4 3 3 4 4 4 3 3 3 3 3 3 3 2 2 2 2 2 1 1 2 1 1 1 1
3 3 4 5 5 4 4 4 3 3 2 2 2 3 3 3 3 2 2 1 1 1 1 1 1 1 1
3 3 3 2 3 4 4 3 3 3 3 2 2 2 3 3 2 2 2 1 1 1 1 1 1 1 1
2 2 2 3 2 2 2 3 1 1 2 2 2 2 2 2 2 2 2 2 1 1 1 0 0 0 0
2 2 2 2 2 2 2 1 1 1 1 1 1 1 1 2 2 2 2 1 1 0 0 0 -0 0 -0
1 1 1 1 1 2 2 2 1 0 0 0 0 -1 -1 0 1 1 1 1 1 1 0 -0 -0 -0 -0
0 0 0 1 1 1 1 1 0 0 1 -0 -0 -1 -1 -1 -0 1 1 0 0 -0 -1 -1 -1 -1 -1
-1 -1 -0 -0 0 0 0 0 0 0 -0 -0 -1 -1 -2 -2 -2 -1 -0 -0 -1 -1 -2 -2 -2 -1 -1
-1 -1 -1 -1 -1 -1 -1 -0 -0 -0 -1 -1 -1 -1 -2 -2 -2 -2 -1 -1 -1 -1 -2 -2 -2 -2 -2
-1 -1 -1 -1 -1 -1 -1 -1 -1 -1 -1 -2 -1 -1 -2 -2 -2 -2 -1 -2 -2 -2 -2 -2 -3 -3 -3
-2 -2 -2 -2 -2 -2 -1 -1 -2 -1 -2 -2 -2 -2 -2 -2 -2 -2 -3 -3 -2 -2 -3 -3 -3 -3 -3
-2 -2 -2 -2 -2 -2 -2 -2 -2 -2 -2 -2 -2 -3 -3 -2 -2 -3 -3 -3 -3 -3 -4 -4 -5 -4 -4
-2 -2 -3 -2 -2 -2 -2 -2 -2 -2 -2 -2 -3 -3 -3 -4 -2 -3 -3 -4 -4 -4 -4 -5 -4 -4 -5